Location: Dittelbrunn
(50.0738°N, 10.2196°E)
Time: 17:09:36
(UTC+00:00)

YAOGAN 1 - Pass Details

Date: 18 September 2020
Orbit: 618 x 620 km, 97.9° (Epoch: 30 October)

Event Time Altitude Azimuth Distance (km) Brightness Sun altitude
Rises 18:22:20 0° 183° (S) 2,886 5.9 -9.9°
Reaches altitude 10° 18:24:37 10° 190° (S) 1,985 5.1 -10.2°
Maximum altitude 18:28:43 42° 262° (W) 892 3.9 -10.9°
Drops below altitude 10° 18:32:51 10° 334° (NNW) 2,001 5.8 -11.5°
Sets 18:35:10 0° 341° (NNW) 2,912 6.6 -11.9°
